Weather History for KCOF - April, 2014

Change the Weather History Date:

Thursday, April 3, 2014

  Actual Average (KMLB) Record (KMLB)
Temperature  
Mean Temperature 70 °F 68 °F  
Max Temperature 78 °F 79 °F 90 °F (1975)
Min Temperature 63 °F 58 °F 45 °F (1972)
Degree Days  
Heating Degree Days 0 1  
Month to date heating degree days 3  
Since 1 July heating degree days 563  
Cooling Degree Days 5 4  
Month to date cooling degree days 12  
Year to date cooling degree days 209  
Growing Degree Days 20 (Base 50)    
Moisture  
Dew Point 65 °F    
Average Humidity 80    
Maximum Humidity 94    
Minimum Humidity 67    
Precipitation  
Precipitation 0.00 in 0.08 in 2.25 in (1941)
Month to date precipitation 0.26  
Year to date precipitation 8.34  
Sea Level Pressure  
Sea Level Pressure 30.13 in    
Wind  
Wind Speed 8 mph (SSE)    
Max Wind Speed 15 mph    
Max Gust Speed -    
Visibility 10 miles    
Events      
T = Trace of Precipitation, MM = Missing Value Source: NWS Daily Summary

Daily Weather History Graph

Daily Weather History Graph

Search for Another Location

Airport or City:

Trip Planner

Search our weather history database for the weather conditions in past years. The results will help you decide how hot, cold, wet, or windy it might be!

Date:

Astronomy

Apr. 03, 2014 Rise Set
Actual Time 7:10 AM EDT 7:41 PM EDT
Civil Twilight 6:46 AM EDT 8:05 PM EDT
Nautical Twilight 6:18 AM EDT 8:32 PM EDT
Astronomical Twilight 5:50 AM EDT 9:01 PM EDT
Moon 9:54 AM EDT (4/3) 11:42 PM EDT (4/3)
Length of Visible Light 13h 18m
Length of Day
12h 31m
Waxing Crescent, 17% of the Moon is Illuminated
Apr 3
Waxing Crescent
Apr 7
First Quarter
Apr 15
Full
Apr 22
Last Quarter
Apr 29
New

Hourly Weather History & Observations

Time (EDT) Temp. Dew Point Humidity Pressure Visibility Wind Dir Wind Speed Gust Speed Precip Events Conditions
1:58 AM 69.8 °F 63.1 °F 79% 30.16 in 10.0 mi South 9.2 mph - N/A   Clear
2:58 AM 69.1 °F 64.8 °F 86% 30.14 in 10.0 mi South 8.1 mph - N/A   Clear
3:58 AM 65.1 °F 62.8 °F 92% 30.12 in 10.0 mi South 5.8 mph - N/A   Clear
4:58 AM 65.3 °F 63.3 °F 93% 30.12 in 10.0 mi SW 4.6 mph - N/A   Clear
5:55 AM 64.4 °F 62.6 °F 94% 30.14 in 10.0 mi WSW 4.6 mph - N/A   Clear
6:58 AM 63.7 °F 61.2 °F 91% 30.16 in 10.0 mi SW 2.3 mph - N/A   Clear
7:58 AM 64.4 °F 62.1 °F 92% 30.17 in 10.0 mi Calm Calm - N/A   Clear
8:58 AM 70.3 °F 63.7 °F 79% 30.17 in 10.0 mi West 2.3 mph - N/A   Clear
9:58 AM 72.0 °F 64.9 °F 78% 30.17 in 10.0 mi East 4.6 mph - N/A   Clear
10:58 AM 73.8 °F 63.3 °F 70% 30.18 in 10.0 mi East 5.8 mph - N/A   Clear
11:58 AM 74.7 °F 64.4 °F 70% 30.16 in 10.0 mi ESE 8.1 mph - N/A   Clear
12:58 PM 75.6 °F 65.1 °F 70% 30.15 in 10.0 mi ESE 10.4 mph - N/A   Clear
1:58 PM 77.4 °F 65.8 °F 67% 30.14 in 10.0 mi SE 12.7 mph - N/A   Clear
2:58 PM 77.9 °F 66.4 °F 68% 30.12 in 10.0 mi SE 15.0 mph - N/A   Clear
3:58 PM 77.5 °F 66.6 °F 69% 30.11 in 10.0 mi SE 13.8 mph - N/A   Clear
4:58 PM 77.0 °F 67.6 °F 73% 30.09 in 10.0 mi SE 13.8 mph - N/A   Clear
5:58 PM 76.3 °F 67.8 °F 75% 30.07 in 10.0 mi SE 15.0 mph - N/A   Clear
6:58 PM 74.3 °F 67.5 °F 79% 30.09 in 10.0 mi SSE 15.0 mph - N/A   Clear
7:58 PM 73.0 °F 67.3 °F 82% 30.09 in 10.0 mi SSE 12.7 mph - N/A   Clear
8:58 PM 72.7 °F 67.3 °F 83% 30.09 in 10.0 mi SSE 15.0 mph - N/A   Clear
9:58 PM 72.3 °F 66.9 °F 83% 30.11 in 10.0 mi SSE 12.7 mph - N/A   Clear
11:58 PM 71.6 °F 67.3 °F 86% 30.11 in 10.0 mi South 13.8 mph - N/A   Clear